#timestamp,LO_Frequency,Hit,StdDev 
1513756815.7,286046996.6,P
1513756835.5,286046999.1,N
1513756855.3,286046995.9,N
1513756875.2,286046993.7,Y
1513756895.9,286046997.1,P
1513756915.7,286046997.3,P
1513756935.6,286046994.0,P
1513756955.4,286046994.4,Y
1513756975.2,286046996.8,P
1513756995.1,286046997.0,P
1513756996.0,286046997.0,P
1513757015.8,286046993.3,Y
1513757035.6,286046999.5,P
1513757055.5,286046999.8,N
1513757075.3,286047000.3,N
1513757095.1,286046998.3,N
1513757115.8,286046997.5,N
1513757135.7,286046996.2,N
1513757155.5,286046995.9,N
1513757175.3,286046996.2,N
1513757195.2,286046994.0,Y
1513757215.0,286046997.6,P
1513757215.9,286046997.6,P
1513757235.7,286046996.1,P
1513757255.6,286046991.8,Y
1513757275.4,286046995.9,P
1513757295.2,286046995.6,P
1513757315.1,286046996.3,P
1513757316.0,286046996.3,Y
1513757335.8,286047001.2,P
1513757355.6,286047001.5,N
1513757375.5,286047004.4,N
1513757395.3,286047002.3,N
1513757415.1,286047002.3,N
1513757435.9,286047001.7,N
1513757455.7,286047002.1,N
1513757475.5,286046999.7,N
1513757495.4,286046999.2,N
1513757515.2,286046997.9,N
1513757535.0,286046999.4,N
1513757535.9,286046999.4,N
1513757555.8,286047000.4,N
1513757575.6,286047001.6,N
1513757595.4,286047005.6,N
1513757615.3,286047006.6,N
1513757635.1,286047006.0,N
1513757636.0,286047006.0,N
1513757655.8,286047003.5,N
1513757675.7,286047002.5,N
1513757695.5,286047002.6,N
1513757715.3,286047001.1,N
1513757735.1,286046999.6,N
1513757755.9,286046999.1,N
1513757775.7,286046994.9,N
1513757795.5,286046994.9,N
1513757815.4,286046996.9,N
1513757835.2,286046996.4,N
1513757855.0,286046993.7,N
1513757855.9,286046993.7,N
1513757875.8,286046994.9,N
1513757895.6,286046996.6,N
1513757915.4,286046999.2,N
1513757935.3,286047002.8,N
1513757955.1,286046999.2,N
1513757956.0,286046999.2,N
1513757975.8,286046995.6,N
1513757995.7,286046998.8,N
1513758015.5,286046997.7,N
1513758035.3,286047000.0,N
1513758055.1,286046998.9,N
1513758075.9,286046996.7,N
1513758095.7,286046996.0,N
1513758115.5,286046995.7,N
1513758135.4,286046993.5,N
1513758155.2,286046994.6,N
1513758175.0,286046996.2,N
1513758175.9,286046996.2,N
1513758195.8,286046995.4,N
1513758215.6,286046997.9,N
1513758235.4,286046998.5,N
1513758255.3,286047002.4,N
1513758275.1,286047000.2,N
1513758276.0,286047000.2,N
1513758295.8,286046999.7,N
1513758315.7,286047000.3,N
1513758335.5,286047001.8,N
1513758355.3,286047001.3,N
1513758375.2,286047003.5,N
1513758395.9,286047005.9,N
1513758415.7,286047004.3,N
1513758435.5,286047003.4,N
1513758455.4,286047005.7,N
1513758475.2,286047002.6,N
1513758495.0,286047000.2,N
1513758495.9,286047000.2,N
1513758515.8,286047000.6,N
1513758535.6,286046998.3,N
1513758555.4,286046999.0,N
1513758575.3,286047002.8,N
1513758595.1,286047002.4,N
1513758615.8,286047003.5,N
1513758635.7,286047007.4,N
1513758655.5,286047007.7,N
1513758675.3,286047008.4,N
1513758695.2,286047007.8,N
1513758715.9,286047006.2,N
1513758735.7,286047006.8,N
1513758755.6,286047008.2,N
1513758775.4,286047013.6,Y
1513758795.2,286047010.7,P
1513758815.1,286047009.3,N
1513758816.0,286047009.3,N
1513758835.8,286047010.3,Y
1513758855.6,286046998.4,P
1513758875.5,286046999.3,N
1513758895.3,286047000.9,N
1513758915.1,286046998.6,N
1513758935.9,286047000.5,N
1513758955.7,286047002.3,N
1513758975.5,286046999.7,N
1513758995.3,286047001.0,N
1513759015.2,286047002.7,N
1513759035.9,286046999.2,N
1513759055.7,286047001.1,N
1513759075.6,286047002.0,N
1513759095.4,286046999.8,N
1513759115.2,286046998.1,N
1513759135.1,286047002.0,N
1513759136.0,286047002.0,N
1513759155.8,286047004.2,N
1513759175.6,286047001.5,N
1513759195.5,286047001.2,N
1513759215.3,286046999.0,N
1513759235.1,286047004.4,N
1513759255.8,286047005.5,N
1513759275.7,286047005.6,N
1513759295.5,286047007.4,N
1513759315.3,286047008.7,Y
1513759335.2,286047007.3,P
1513759355.0,286047007.3,N
1513759355.9,286047007.3,N
1513759375.8,286047011.1,Y
1513759395.6,286047005.0,P
1513759415.4,286047008.4,P
1513759435.2,286047010.6,P
1513759455.1,286047010.2,Y
1513759456.0,286047010.2,P
1513759475.8,286047001.3,N
1513759495.6,286047002.0,N
1513759515.5,286047003.5,N
1513759535.3,286047007.1,N
1513759555.1,286047003.4,N
1513759575.9,286047003.3,N
1513759595.7,286047001.8,N
1513759615.5,286047003.8,N
1513759635.4,286047004.9,N
1513759655.2,286047006.7,N
1513759675.0,286047002.9,N
1513759675.9,286047002.9,N
1513759695.8,286047003.2,N
1513759715.6,286046998.8,N
1513759735.4,286047001.1,N
1513759755.3,286047001.0,N
1513759775.1,286046998.8,N
1513759776.0,286046998.8,N
1513759795.8,286046999.9,N
1513759815.7,286047002.2,N
1513759835.5,286046999.7,N
1513759855.3,286047004.2,N
1513759875.1,286047003.7,N
1513759895.9,286047003.1,N
1513759915.7,286047005.1,N
1513759935.5,286047003.9,N
1513759955.4,286047003.9,N
1513759975.2,286047005.8,N
1513759995.0,286047005.3,N
1513759995.9,286047005.3,N
1513760015.8,286047007.5,Y
1513760035.6,286047002.3,P
1513760055.4,286046999.0,P
1513760075.3,286046998.8,N
1513760095.1,286046996.5,N
1513760096.0,286046996.5,N
1513760115.8,286046995.6,N
1513760135.7,286046996.8,N
1513760155.5,286046995.3,N
1513760175.3,286046994.7,N
1513760195.2,286046992.8,N
1513760215.9,286046994.4,N
1513760235.7,286046994.8,N
1513760255.5,286046992.8,N
1513760275.4,286046994.7,N
1513760295.2,286046993.6,N
1513760315.0,286046994.0,N
1513760315.9,286046994.0,N
1513760335.8,286046988.8,Y
1513760355.6,286046994.5,P
1513760375.4,286046993.7,P
1513760395.3,286046994.7,P
